Weather History for Wichita, KS

Change the Weather History Date:

Monday, February 20, 2012

  Actual Average Record
Temperature  
Mean Temperature 48 °F 39 °F  
Max Temperature 56 °F 50 °F 81 °F (1981)
Min Temperature 40 °F 28 °F 3 °F (1918)
Degree Days  
Heating Degree Days 17 26  
Month to date heating degree days 542 580  
Since 1 July heating degree days 3058 3440  
Cooling Degree Days 0 0  
Month to date cooling degree days 0 0  
Year to date cooling degree days 0 0  
Moisture  
Dew Point 40 °F    
Average Humidity 78    
Maximum Humidity 89    
Minimum Humidity 67    
Precipitation  
Precipitation 0.18 in 0.04 in 0.81 in (1997)
Month to date precipitation 3.40 0.80  
Year to date precipitation 3.43 1.63  
Snow  
Snow T in 0.10 in 6.20 in (2013)
Month to date snowfall 2.2 2.6  
Since 1 July snowfall 2.6 11.8  
Snow Depth 0.00 in    
Sea Level Pressure  
Sea Level Pressure 29.74 in    
Wind  
Wind Speed 21 mph (SSW)    
Max Wind Speed 43 mph    
Max Gust Speed 55 mph    
Visibility 9 miles    
Events Rain , Hail , Thunderstorm    
T = Trace of Precipitation, MM = Missing Value Source: NWS Daily Summary

Daily Weather History Graph

Daily Weather History Graph

Search for Another Location

Airport:

Trip Planner

Search our weather history database for the weather conditions in past years. The results will help you decide how hot, cold, wet, or windy it might be!

Date:

Astronomy

Feb. 20, 2012 Rise Set
Actual Time 7:13 AM CST 6:13 PM CST
Civil Twilight 6:47 AM CST 6:40 PM CST
Nautical Twilight 6:16 AM CST 7:10 PM CST
Astronomical Twilight 5:46 AM CST 7:41 PM CST
Moon 6:10 AM CST (2/20) 5:20 PM CST (2/20)
Length of Visible Light 11h 53m
Length of Day
11h 00m
Waning Crescent, 1% of the Moon is Illuminated
Feb 20
Waning Crescent
Feb 21
New
Feb 29
First Quarter
Mar 8
Full
Mar 14
Last Quarter

Hourly Weather History & Observations

Time (CST) Temp. Windchill Dew Point Humidity Pressure Visibility Wind Dir Wind Speed Gust Speed Precip Events Conditions
12:53 AM 41.0 °F 34.3 °F 36.0 °F 82% 29.94 in 10.0 mi South 11.5 mph - N/A   Scattered Clouds
1:53 AM 39.9 °F 31.8 °F 36.0 °F 86% 29.93 in 10.0 mi SSE 15.0 mph - N/A   Scattered Clouds
2:53 AM 41.0 °F 33.1 °F 37.9 °F 89% 29.91 in 10.0 mi South 15.0 mph - N/A   Mostly Cloudy
3:53 AM 42.1 °F 33.9 °F 39.0 °F 89% 29.88 in 10.0 mi SSE 17.3 mph 25.3 mph N/A   Mostly Cloudy
4:53 AM 42.1 °F 34.5 °F 39.9 °F 92% 29.86 in 8.0 mi SSE 15.0 mph - 0.01 in Rain Rain
5:53 AM 44.1 °F 35.4 °F 41.0 °F 89% 29.83 in 7.0 mi SSE 21.9 mph 26.5 mph 0.00 in   Overcast
6:50 AM 44.6 °F 35.5 °F 41.0 °F 87% 29.79 in 10.0 mi SSE 25.3 mph 35.7 mph N/A   Overcast
6:53 AM 45.0 °F 36.4 °F 41.0 °F 86% 29.80 in 10.0 mi SSE 23.0 mph 35.7 mph N/A   Overcast
7:53 AM 45.0 °F 35.6 °F 41.0 °F 86% 29.80 in 6.0 mi SSE 27.6 mph 38.0 mph N/A   Overcast
8:53 AM 46.0 °F 37.2 °F 42.1 °F 86% 29.80 in 8.0 mi South 26.5 mph 36.8 mph N/A   Overcast
9:10 AM 46.4 °F 37.4 °F 42.8 °F 87% 29.79 in 7.0 mi South 28.8 mph 36.8 mph N/A   Overcast
9:53 AM 46.0 °F 37.6 °F 43.0 °F 89% 29.82 in 7.0 mi South 24.2 mph 34.5 mph N/A   Overcast
10:53 AM 46.0 °F 38.0 °F 43.0 °F 89% 29.80 in 6.0 mi South 21.9 mph 31.1 mph N/A   Overcast
11:53 AM 48.0 °F - 44.1 °F 86% 29.77 in 6.0 mi South 26.5 mph 36.8 mph N/A   Overcast
12:53 PM 48.2 °F - 44.6 °F 87% 29.70 in 10.0 mi South 28.8 mph 36.8 mph N/A   Overcast
1:33 PM 51.8 °F - 44.6 °F 76% 29.69 in 10.0 mi South 27.6 mph 35.7 mph N/A   Mostly Cloudy
1:53 PM 52.0 °F - 44.1 °F 74% 29.68 in 10.0 mi South 24.2 mph 39.1 mph N/A   Overcast
2:37 PM 53.6 °F - 44.6 °F 72% 29.62 in 10.0 mi South 31.1 mph 43.7 mph N/A   Mostly Cloudy
2:53 PM 54.0 °F - 44.1 °F 69% 29.63 in 10.0 mi South 31.1 mph 38.0 mph N/A   Mostly Cloudy
3:16 PM 53.6 °F - 44.6 °F 72% 29.63 in 10.0 mi South 26.5 mph 35.7 mph N/A   Mostly Cloudy
3:31 PM 53.6 °F - 42.8 °F 67% 29.60 in 10.0 mi South 23.0 mph 31.1 mph N/A   Mostly Cloudy
3:43 PM 53.6 °F - 42.8 °F 67% 29.59 in 10.0 mi South 18.4 mph 31.1 mph 0.00 in   Overcast
3:53 PM 53.1 °F - 44.1 °F 71% 29.59 in 10.0 mi South 21.9 mph 26.5 mph N/A Thunderstorm Thunderstorm
4:01 PM 42.8 °F 32.9 °F 37.4 °F 81% 29.64 in 3.0 mi West 26.5 mph 55.2 mph 0.04 in Rain , Hail , Thunderstorm Heavy Thunderstorms and Rain
4:05 PM 42.8 °F 33.8 °F 37.4 °F 81% 29.63 in 2.5 mi West 21.9 mph 55.2 mph 0.07 in Rain , Thunderstorm Heavy Thunderstorms and Rain
4:09 PM 42.8 °F 33.5 °F 39.2 °F 87% 29.63 in 6.0 mi West 23.0 mph 35.7 mph 0.07 in Rain , Thunderstorm Light Thunderstorms and Rain
4:15 PM 44.6 °F 36.6 °F 37.4 °F 76% 29.61 in 10.0 mi West 19.6 mph 29.9 mph 0.07 in Thunderstorm Thunderstorm
4:31 PM 46.4 °F 40.7 °F 37.4 °F 71% 29.56 in 10.0 mi West 12.7 mph - 0.07 in   Mostly Cloudy
4:53 PM 48.2 °F - 39.2 °F 71% 29.60 in 10.0 mi South 15.0 mph 21.9 mph N/A   Mostly Cloudy
5:53 PM 44.1 °F 40.1 °F 39.9 °F 85% 29.64 in 10.0 mi South 6.9 mph - N/A   Scattered Clouds
6:53 PM 43.0 °F 34.2 °F 37.0 °F 80% 29.68 in 10.0 mi West 20.7 mph 31.1 mph N/A   Scattered Clouds
7:47 PM 42.8 °F 33.1 °F 37.4 °F 81% 29.70 in 8.0 mi WNW 25.3 mph 40.3 mph 0.00 in Rain Light Rain
7:53 PM 41.0 °F 32.8 °F 37.9 °F 89% 29.72 in 6.0 mi WNW 16.1 mph 34.5 mph 0.00 in Rain Light Rain
8:53 PM 41.0 °F 30.7 °F 39.0 °F 93% 29.75 in 10.0 mi WNW 25.3 mph 40.3 mph 0.00 in   Mostly Cloudy
9:30 PM 41.0 °F 31.1 °F 35.6 °F 81% 29.77 in 10.0 mi WNW 23.0 mph 40.3 mph N/A   Overcast
9:53 PM 41.0 °F 30.9 °F 35.1 °F 79% 29.80 in 10.0 mi WNW 24.2 mph 34.5 mph N/A   Overcast
10:45 PM 42.8 °F 32.9 °F 33.8 °F 70% 29.82 in 10.0 mi NW 26.5 mph 41.4 mph N/A   Mostly Cloudy
10:53 PM 42.1 °F 32.1 °F 32.0 °F 67% 29.84 in 10.0 mi NW 25.3 mph 35.7 mph N/A   Mostly Cloudy
11:53 PM 39.9 °F 30.2 °F 28.9 °F 65% 29.88 in 10.0 mi WNW 20.7 mph 26.5 mph N/A   Partly Cloudy